Bellmunt





Hora UTC 20:50
Temperatura 5.3 ºC
Humitat 94.0 %
Pressió 1021.9 hPa
Pluja 0.0 mm
Velocitat vent 12.9 km/h
Direcció vent WSW

Dades diàries 2020-01-29



Hora UTC (hivern +1h; estiu +2h)
Temperatura (ºC) Humitat (%) Pressió (hPa) Velocitat vent (km/h) Precipitació (mm)
Hora UTC Aire Humitat Pressió Vel. Dir. Vel. Max Dir. Intent. màx 5 min.
00:00 3.2 95.0 1019.2 16.1 WSW 16.1 0.0
00:10 0.0
00:15 0.0
00:20 0.0
00:25 0.0
00:30 0.0
00:35 0.0
00:40 0.0
00:45 0.0
00:50 0.0
00:55 0.0
01:00 0.0
01:05 0.0
01:10 0.0
01:15 0.0
01:20 0.0
01:25 0.0
01:30 0.0
01:35 0.0
01:40 0.0
01:45 0.0
01:50 0.0
01:55 0.0
02:00 0.0
02:05 3.6 82.0 1018.8 17.7 W 22.5 0.0
02:10 3.7 85.0 1018.9 3.2 W 22.5 0.0
02:15 3.4 84.0 1018.8 16.1 W 17.7 0.0
02:20 3.4 83.0 1018.9 16.1 W 20.9 0.0
02:25 3.4 83.0 1018.8 14.5 WSW 20.9 0.0
02:25 3.4 83.0 1018.7 16.1 W 20.9 0.0
02:35 3.3 83.0 1018.6 11.3 W 19.3 0.0
02:40 3.2 82.0 1018.6 16.1 W 19.3 0.0
02:45 3.3 83.0 1018.5 14.5 WNW 19.3 0.0
02:50 3.2 84.0 1018.5 14.5 WNW 19.3 0.0
02:55 3.2 84.0 1018.4 16.1 WNW 17.7 0.0
03:00 3.2 84.0 1018.5 16.1 WNW 19.3 0.0
03:05 3.4 81.0 1018.5 14.5 WNW 19.3 0.0
03:10 3.7 80.0 1018.5 20.9 WNW 20.9 0.0
03:15 3.8 77.0 1018.6 11.3 WNW 22.5 0.0
03:20 3.7 81.0 1018.5 11.3 NW 20.9 0.0
03:25 3.6 80.0 1018.5 14.5 WNW 16.1 0.0
03:25 3.6 79.0 1018.5 16.1 WNW 17.7 0.0
03:35 3.7 78.0 1018.5 20.9 WNW 20.9 0.0
03:40 3.7 78.0 1018.4 14.5 WNW 20.9 0.0
03:45 3.6 79.0 1018.5 8.0 WNW 20.9 0.0
03:50 3.5 81.0 1018.5 16.1 WNW 19.3 0.0
03:55 3.5 78.0 1018.5 14.5 W 17.7 0.0
04:00 3.6 77.0 1018.5 16.1 W 17.7 0.0
04:05 3.7 77.0 1018.5 11.3 W 17.7 0.0
04:10 3.7 78.0 1018.5 11.3 W 16.1 0.0
04:15 3.6 79.0 1018.6 6.4 W 14.5 0.0
04:20 3.6 78.0 1018.6 6.4 W 12.9 0.0
04:25 3.8 78.0 1018.5 3.2 W 8.0 0.0
04:25 3.8 77.0 1018.4 3.2 W 6.4 0.0
04:35 3.7 80.0 1018.6 1.6 SSW 4.8 0.0
04:40 3.5 79.0 1018.7 3.2 SSW 4.8 0.0
04:45 3.4 80.0 1018.6 3.2 SSW 4.8 0.0
04:50 3.3 81.0 1018.5 1.6 SSW 4.8 0.0
04:55 3.4 80.0 1018.5 0.0 SSW 4.8 0.0
05:00 3.5 79.0 1018.6 1.6 SSW 3.2 0.0
05:05 3.6 80.0 1018.6 1.6 SSW 3.2 0.0
05:10 3.4 78.0 1018.7 4.8 SSW 6.4 0.0
05:15 3.7 76.0 1018.8 0.0 SW 6.4 0.0
05:20 3.6 82.0 1018.8 0.0 SSW 6.4 0.0
05:25 3.1 84.0 1018.4 11.3 SE 16.1 0.0
05:25 2.9 85.0 1018.6 9.7 ESE 16.1 0.0
05:35 2.7 86.0 1018.8 12.9 E 16.1 0.0
05:40 2.9 84.0 1018.9 9.7 E 14.5 0.0
05:45 3.0 83.0 1018.9 6.4 E 14.5 0.0
05:50 3.1 82.0 1018.8 6.4 E 11.3 0.0
05:55 3.1 81.0 1018.8 6.4 E 11.3 0.0
06:00 3.2 80.0 1018.9 9.7 E 11.3 0.0
06:05 3.2 81.0 1018.6 17.7 SE 20.9 0.0
06:10 3.1 83.0 1018.8 16.1 SE 20.9 0.0
06:15 3.0 83.0 1018.9 16.1 SE 17.7 0.0
06:20 2.9 84.0 1019.4 6.4 ESE 17.7 0.0
06:25 2.9 82.0 1019.4 11.3 E 17.7 0.0
06:25 3.0 83.0 1019.2 9.7 E 12.9 0.0
06:35 2.7 86.0 1019.2 14.5 ESE 17.7 0.0
06:40 2.7 86.0 1019.1 14.5 SE 17.7 0.0
06:45 2.8 86.0 1019.2 16.1 SE 17.7 0.0
06:50 2.8 85.0 1019.2 12.9 SE 22.5 0.0
06:55 2.9 87.0 1019.1 9.7 E 22.5 0.0
07:00 2.9 88.0 1019.2 6.4 E 14.5 0.0
07:05 3.0 87.0 1019.3 12.9 SSE 14.5 0.0
07:10 2.8 86.0 1019.3 14.5 SSE 17.7 0.0
07:15 2.8 86.0 1019.3 16.1 SE 16.1 0.0
07:20 2.7 88.0 1019.3 11.3 SSE 19.3 0.0
07:25 2.5 88.0 1019.5 12.9 SSE 19.3 0.0
07:25 2.5 88.0 1019.6 14.5 SSE 17.7 0.0
07:35 2.6 87.0 1019.8 9.7 SSE 14.5 0.0
07:40 2.7 86.0 1019.8 9.7 S 17.7 0.0
07:45 2.7 86.0 1019.8 17.7 S 17.7 0.0
07:50 2.8 85.0 1020.0 16.1 SSE 16.1 0.0
07:55 2.8 85.0 1020.1 9.7 SSE 17.7 0.0
08:00 2.7 86.0 1020.2 3.2 S 17.7 0.0
08:05 2.8 85.0 1020.1 8.0 SSE 12.9 0.0
08:10 2.8 84.0 1020.2 6.4 SSE 12.9 0.0
08:15 2.9 85.0 1020.3 1.6 S 9.7 0.0
08:20 2.9 84.0 1020.4 3.2 S 6.4 0.0
08:25 3.1 86.0 1020.3 1.6 S 8.0 0.0
08:25 3.1 86.0 1020.2 0.0 S 8.0 0.0
08:35 3.3 83.0 1020.5 4.8 S 4.8 0.0
08:40 3.8 86.0 1020.6 0.0 S 4.8 0.0
08:40 4.0 85.0 1020.7 0.0 S 4.8 0.0
08:50 4.3 82.0 1020.8 1.6 S 3.2 0.0
08:55 4.4 84.0 1020.8 6.4 S 6.4 0.0
09:00 4.1 84.0 1020.8 6.4 S 8.0 0.0
09:05 3.8 80.0 1020.8 3.2 S 6.4 0.0
09:10 3.9 82.0 1020.9 3.2 S 8.0 0.0
09:15 4.1 81.0 1020.9 1.6 SSE 8.0 0.0
09:20 4.6 81.0 1020.9 0.0 SE 8.0 0.0
09:25 4.9 70.0 1021.0 0.0 SE 8.0 0.0
09:25 5.1 72.0 1021.0 0.0 SE 4.8 0.0
09:35 5.3 77.0 1021.2 0.0 SE 1.6 0.0
09:40 5.4 80.0 1021.1 1.6 SE 3.2 0.0
09:45 5.6 73.0 1021.2 3.2 SE 6.4 0.0
09:50 5.8 80.0 1021.2 1.6 SE 6.4 0.0
09:55 6.0 78.0 1021.3 0.0 SE 4.8 0.0
10:00 6.2 75.0 1021.2 1.6 SE 4.8 0.0
10:05 6.2 75.0 1021.2 4.8 SE 6.4 0.0
10:10 5.6 81.0 1021.3 3.2 SE 11.3 0.0
10:15 4.8 83.0 1021.3 3.2 SE 11.3 0.0
10:20 4.7 83.0 1021.4 0.0 SE 6.4 0.0
10:25 4.6 84.0 1021.4 3.2 SE 6.4 0.0
10:25 4.8 82.0 1021.5 1.6 SE 6.4 0.0
10:35 5.6 83.0 1021.5 3.2 SE 11.3 0.0
10:40 5.8 81.0 1021.5 0.0 SSE 8.0 0.0
10:45 6.3 82.0 1021.5 4.8 SE 8.0 0.0
10:50 6.6 80.0 1021.4 0.0 SE 6.4 0.0
10:55 6.9 78.0 1021.4 0.0 SE 3.2 0.0
11:00 6.4 78.0 1021.4 4.8 SE 12.9 0.0
11:05 5.8 82.0 1021.4 4.8 SE 12.9 0.0
11:10 5.8 82.0 1021.4 0.0 SE 8.0 0.0
11:15 5.8 82.0 1021.4 4.8 SSE 8.0 0.0
11:20 6.1 82.0 1021.2 0.0 SSE 8.0 0.0
11:25 6.1 82.0 1021.2 3.2 SE 14.5 0.0
11:30 5.2 81.0 1021.2 0.0 SSW 14.5 0.0
11:35 4.9 82.0 1021.2 3.2 SSW 9.7 0.0
11:40 5.6 81.0 1021.1 1.6 SE 11.3 0.0
11:45 5.7 82.0 1021.0 4.8 SE 11.3 0.0
11:50 5.3 84.0 1020.9 0.0 SSW 14.5 0.0
11:55 5.2 83.0 1020.9 0.0 SSW 14.5 0.0
11:55 5.3 83.0 1020.8 11.3 SSE 14.5 0.0
12:05 4.8 82.0 1020.8 20.9 SSE 20.9 0.0
12:10 4.7 83.0 1020.7 9.7 S 19.3 0.0
12:15 4.4 84.0 1020.8 3.2 SSE 19.3 0.0
12:20 4.6 85.0 1020.7 8.0 S 14.5 0.0
12:25 5.4 83.0 1020.7 1.6 S 17.7 0.0
12:30 5.3 84.0 1020.7 6.4 SSE 17.7 0.0
12:35 5.3 83.0 1020.4 6.4 S 16.1 0.0
12:40 5.2 79.0 1020.4 1.6 S 14.5 0.0
12:45 5.0 79.0 1020.5 12.9 S 17.7 0.0
12:50 4.8 78.0 1020.4 3.2 S 17.7 0.0
12:55 4.8 77.0 1020.4 4.8 S 14.5 0.0
12:55 4.9 77.0 1020.4 11.3 SE 14.5 0.0
13:05 5.4 76.0 1020.4 1.6 SSE 14.5 0.0
13:10 5.5 75.0 1020.5 0.0 SSW 14.5 0.0
13:15 5.4 74.0 1020.3 8.0 S 16.1 0.0
13:20 5.3 77.0 1020.3 0.0 S 12.9 0.0
13:25 5.4 78.0 1020.4 0.0 S 12.9 0.0
13:30 5.3 79.0 1020.3 9.7 SSW 11.3 0.0
13:35 5.3 77.0 1020.2 1.6 SSW 11.3 0.0
13:40 5.7 76.0 1020.1 0.0 S 8.0 0.0
13:45 6.1 76.0 1020.1 0.0 S 8.0 0.0
13:50 6.7 75.0 1020.1 0.0 S 3.2 0.0
13:55 7.1 75.0 1020.2 1.6 SSW 4.8 0.0
14:00 6.7 75.0 1020.1 0.0 S 9.7 0.0
14:05 6.8 77.0 1020.1 1.6 S 9.7 0.0
14:10 7.2 75.0 1020.0 0.0 S 4.8 0.0
14:15 6.8 76.0 1020.0 1.6 S 4.8 0.0
14:20 6.9 77.0 1019.9 0.0 S 4.8 0.0
14:25 7.2 77.0 1020.0 0.0 S 3.2 0.0
14:25 7.3 75.0 1020.0 0.0 S 3.2 0.0
14:35 7.6 75.0 1020.0 3.2 S 3.2 0.0
14:40 7.7 75.0 1020.0 3.2 S 4.8 0.0
14:45 7.9 74.0 1020.0 3.2 SSE 11.3 0.0
14:50 7.4 75.0 1020.0 1.6 S 11.3 0.0
14:55 7.3 77.0 1020.1 0.0 SSW 8.0 0.0
15:00 7.4 76.0 1020.2 1.6 SSW 8.0 0.0
15:05 7.6 75.0 1020.3 0.0 SSW 3.2 0.0
15:10 7.6 77.0 1020.3 1.6 SSW 6.4 0.0
15:15 7.8 77.0 1020.3 0.0 SSW 6.4 0.0
15:20 7.8 74.0 1020.3 1.6 SSW 4.8 0.0
15:25 7.4 76.0 1020.3 0.0 SSW 3.2 0.0
15:25 7.4 76.0 1020.3 0.0 SSW 3.2 0.0
15:35 7.2 76.0 1020.1 1.6 SSW 3.2 0.0
15:40 7.1 77.0 1020.3 1.6 SSW 3.2 0.0
15:45 7.1 77.0 1020.3 0.0 SSW 3.2 0.0
15:50 7.0 78.0 1020.3 3.2 SSW 4.8 0.0
15:55 6.5 77.0 1020.4 3.2 SSW 4.8 0.0
16:00 5.9 79.0 1020.4 3.2 SSW 4.8 0.0
16:05 5.7 79.0 1020.5 4.8 SW 4.8 0.0
16:10 5.8 80.0 1020.6 3.2 SW 6.4 0.0
16:15 5.8 81.0 1020.6 1.6 SW 9.7 0.0
16:20 5.7 79.0 1020.8 1.6 SW 9.7 0.0
16:25 5.7 79.0 1020.8 1.6 SW 6.4 0.0
16:30 5.7 80.0 1020.9 3.2 SW 6.4 0.0
16:35 5.7 81.0 1020.8 8.0 WSW 9.7 0.0
16:40 5.8 81.0 1021.0 9.7 W 9.7 0.0
16:45 5.9 81.0 1021.0 1.6 W 9.7 0.0
16:50 5.9 80.0 1020.9 4.8 W 9.7 0.0
16:55 5.8 80.0 1020.9 0.0 W 4.8 0.0
16:55 5.7 81.0 1020.9 4.8 W 4.8 0.0
17:05 5.7 82.0 1021.0 11.3 W 12.9 0.0
17:10 5.6 83.0 1021.1 12.9 W 12.9 0.0
17:15 5.6 84.0 1021.2 11.3 W 12.9 0.0
17:20 5.6 84.0 1021.3 11.3 W 12.9 0.0
17:25 5.5 84.0 1021.1 11.3 W 12.9 0.0
17:30 5.5 84.0 1021.1 9.7 W 11.3 0.0
17:35 5.5 84.0 1021.3 6.4 W 11.3 0.0
17:40 5.5 85.0 1021.4 6.4 W 11.3 0.0
17:45 5.5 85.0 1021.4 9.7 W 11.3 0.0
17:50 5.4 86.0 1021.4 4.8 W 11.3 0.0
17:55 5.3 85.0 1021.5 9.7 W 12.9 0.0
17:55 5.4 85.0 1021.5 12.9 W 14.5 0.0
18:05 5.4 85.0 1021.5 12.9 W 16.1 0.0
18:10 5.4 85.0 1021.5 14.5 W 16.1 0.0
18:15 5.4 85.0 1021.4 11.3 W 17.7 0.0
18:20 5.4 85.0 1021.3 14.5 WSW 17.7 0.0
18:25 5.5 85.0 1021.4 12.9 W 16.1 0.0
18:30 5.6 85.0 1021.3 14.5 W 17.7 0.0
18:35 5.6 86.0 1021.3 16.1 WSW 17.7 0.0
18:40 5.6 88.0 1021.4 12.9 W 17.7 0.0
18:45 5.4 89.0 1021.4 12.9 W 16.1 0.0
18:50 5.4 89.0 1021.5 14.5 W 16.1 0.0
18:55 5.4 90.0 1021.5 12.9 W 16.1 0.0
18:55 5.4 90.0 1021.5 12.9 W 16.1 0.0
19:05 5.3 90.0 1021.6 11.3 W 17.7 0.0
19:10 5.3 91.0 1021.6 12.9 W 17.7 0.0
19:15 5.3 91.0 1021.6 4.8 WSW 16.1 0.0
19:20 5.3 91.0 1021.8 11.3 W 16.1 0.0
19:25 5.3 91.0 1021.8 11.3 W 16.1 0.0
19:30 5.3 92.0 1021.9 11.3 W 17.7 0.0
19:35 5.3 92.0 1021.9 6.4 W 17.7 0.0
19:40 5.2 92.0 1021.9 11.3 W 14.5 0.0
19:45 5.2 92.0 1021.8 12.9 W 16.1 0.0
19:50 5.1 92.0 1021.9 14.5 W 16.1 0.0
19:55 5.2 92.0 1021.9 3.2 W 16.1 0.0
19:55 5.1 92.0 1021.9 11.3 W 16.1 0.0
20:05 5.1 92.0 1021.9 11.3 WSW 17.7 0.0
20:10 5.2 93.0 1022.0 11.3 W 17.7 0.0
20:15 5.2 93.0 1022.0 9.7 W 14.5 0.0
20:20 5.1 93.0 1022.1 11.3 W 14.5 0.0
20:25 5.1 93.0 1022.1 6.4 W 12.9 0.0
20:30 5.1 93.0 1022.0 9.7 W 11.3 0.0
20:35 5.2 94.0 1022.0 11.3 W 16.1 0.0
20:40 5.2 94.0 1022.0 11.3 WSW 16.1 0.0
20:45 5.3 94.0 1022.0 12.9 W 17.7 0.0
20:50 5.3 94.0 1021.9 12.9 WSW 17.7 0.0
Màxima 7.9 95.0 1022.1 20.9 SSE 22.5 0.0
Mínima 2.4 70.0 1018.4
Total 0.0